,,,PA_Meas_PMT16A,,PR_Meas_QMR101_102,,RH_Meas_QMH101,,SR_Meas_QMS101,,TA_Meas_QMH101,,GenWind,,GenWind,
date,time,status,PA,status,PR,status,RH,status,SR,status,TA,status,DirAvg,status,SpdAvg,
2011-09-13, 00:00:04,VALID,1004.75,VALID,0,INVALID,163.678,VALID,0,VALID,24.8484,VALID,354,VALID,0,
2011-09-13, 00:01:04,VALID,1004.72,VALID,0,INVALID,163.708,VALID,0,VALID,24.8697,VALID,351,VALID,0,
2011-09-13, 00:02:04,VALID,1004.69,VALID,0,INVALID,163.701,VALID,0,VALID,24.8697,VALID,354,VALID,0,
2011-09-13, 00:03:04,VALID,1004.68,VALID,0,INVALID,163.708,VALID,0,VALID,24.8697,VALID,347,VALID,0,
2011-09-13, 00:04:04,VALID,1004.65,VALID,0,INVALID,163.693,VALID,0,VALID,24.8911,VALID,348,VALID,0,
2011-09-13, 00:05:04,VALID,1004.65,VALID,0,INVALID,163.693,VALID,0,VALID,24.8697,VALID,350,VALID,0,
2011-09-13, 00:06:04,VALID,1004.65,VALID,0,INVALID,163.708,VALID,0,VALID,24.8892,VALID,357,VALID,0,
2011-09-13, 00:07:04,VALID,1004.63,VALID,0,INVALID,163.716,VALID,0,VALID,24.8892,VALID,350,VALID,0,
2011-09-13, 00:08:04,VALID,1004.61,VALID,0,INVALID,163.701,VALID,0,VALID,24.8697,VALID,350,VALID,0,
2011-09-13, 00:09:04,VALID,1004.63,VALID,0,INVALID,163.708,VALID,0,VALID,24.8484,VALID,353,VALID,0,
2011-09-13, 00:10:04,VALID,1004.61,VALID,0,INVALID,163.701,VALID,0,VALID,24.93,VALID,355,VALID,0,
2011-09-13, 00:11:04,VALID,1004.6,VALID,0,INVALID,163.701,VALID,0,VALID,24.9282,VALID,350,VALID,0,
2011-09-13, 00:12:04,VALID,1004.62,VALID,0,INVALID,163.678,VALID,0,VALID,24.9866,VALID,353,VALID,0,
2011-09-13, 00:13:04,VALID,1004.62,VALID,0,INVALID,163.685,VALID,0.100563,VALID,25.006,VALID,351,VALID,0,
2011-09-13, 00:14:04,VALID,1004.6,VALID,0,INVALID,163.716,VALID,0.100563,VALID,25.045,VALID,354,VALID,0,
2011-09-13, 00:15:04,VALID,1004.59,VALID,0,INVALID,163.693,VALID,0.100563,VALID,25.045,VALID,350,VALID,0,
2011-09-13, 00:16:04,VALID,1004.61,VALID,0,INVALID,163.708,VALID,0,VALID,25.045,VALID,352,VALID,0,
2011-09-13, 00:17:04,VALID,1004.61,VALID,0,INVALID,163.685,VALID,0.100563,VALID,25.0255,VALID,338,VALID,0,
2011-09-13, 00:18:04,VALID,1004.64,VALID,0,INVALID,163.678,VALID,0,VALID,25.0255,VALID,340,VALID,0,
2011-09-13, 00:19:04,VALID,1004.64,VALID,0,INVALID,163.701,VALID,0.100563,VALID,25.0255,VALID,347,VALID,0,
2011-09-13, 00:20:04,VALID,1004.64,VALID,0,INVALID,163.685,VALID,0.100563,VALID,25.006,VALID,354,VALID,0,
2011-09-13, 00:21:04,VALID,1004.68,VALID,0,INVALID,163.685,VALID,0,VALID,25.0255,VALID,347,VALID,0,
2011-09-13, 00:22:04,VALID,1004.68,VALID,0,INVALID,163.693,VALID,0,VALID,25.0255,VALID,352,VALID,0,
2011-09-13, 00:23:04,VALID,1004.71,VALID,0,INVALID,163.708,VALID,0,VALID,25.0255,VALID,356,VALID,0,
2011-09-13, 00:24:04,VALID,1004.68,VALID,0,INVALID,163.685,VALID,0,VALID,25.0274,VALID,357,VALID,0,
2011-09-13, 00:25:04,VALID,1004.68,VALID,0,INVALID,163.701,VALID,0,VALID,24.9866,VALID,352,VALID,0,
2011-09-13, 00:26:04,VALID,1004.65,VALID,0,INVALID,163.701,VALID,0,VALID,25.0079,VALID,351,VALID,0,
2011-09-13, 00:27:04,VALID,1004.65,VALID,0,INVALID,163.701,VALID,0,VALID,24.9866,VALID,342,VALID,0,
2011-09-13, 00:28:04,VALID,1004.65,VALID,0,INVALID,163.701,VALID,0,VALID,24.9457,VALID,2,VALID,0,
2011-09-13, 00:29:04,VALID,1004.63,VALID,0,INVALID,163.685,VALID,0,VALID,24.9263,VALID,346,VALID,0,
2011-09-13, 00:30:04,VALID,1004.68,VALID,0,INVALID,163.685,VALID,0,VALID,24.9282,VALID,346,VALID,0,
2011-09-13, 00:31:04,VALID,1004.67,VALID,0,INVALID,163.701,VALID,0,VALID,24.9087,VALID,350,VALID,0,
2011-09-13, 00:32:04,VALID,1004.68,VALID,0,INVALID,163.723,VALID,0,VALID,24.8697,VALID,347,VALID,0,
2011-09-13, 00:33:04,VALID,1004.68,VALID,0,INVALID,163.693,VALID,0,VALID,24.8892,VALID,348,VALID,0,
2011-09-13, 00:34:04,VALID,1004.69,VALID,0,INVALID,163.708,VALID,0,VALID,24.8503,VALID,346,VALID,0,
2011-09-13, 00:35:04,VALID,1004.71,VALID,0,INVALID,163.685,VALID,0,VALID,24.8113,VALID,351,VALID,0,
2011-09-13, 00:36:04,VALID,1004.72,VALID,0,INVALID,163.731,VALID,0,VALID,24.7724,VALID,352,VALID,0,
2011-09-13, 00:37:04,VALID,1004.75,VALID,0,INVALID,163.723,VALID,0,VALID,24.7121,VALID,348,VALID,0,
2011-09-13, 00:38:04,VALID,1004.71,VALID,0,INVALID,163.708,VALID,0.100563,VALID,24.6926,VALID,349,VALID,0,
2011-09-13, 00:39:04,VALID,1004.7,VALID,0,INVALID,163.723,VALID,0,VALID,24.6945,VALID,349,VALID,0,
2011-09-13, 00:40:04,VALID,1004.72,VALID,0,INVALID,163.685,VALID,0,VALID,24.6945,VALID,352,VALID,0,
2011-09-13, 00:41:04,VALID,1004.73,VALID,0,INVALID,163.716,VALID,0.100563,VALID,24.714,VALID,353,VALID,0,
2011-09-13, 00:42:04,VALID,1004.7,VALID,0,INVALID,163.701,VALID,0.100563,VALID,24.6945,VALID,353,VALID,0,
2011-09-13, 00:43:04,VALID,1004.68,VALID,0,INVALID,163.708,VALID,0.100563,VALID,24.714,VALID,353,VALID,0,
2011-09-13, 00:44:04,VALID,1004.66,VALID,0,INVALID,163.716,VALID,0,VALID,24.714,VALID,349,VALID,0,
2011-09-13, 00:45:04,VALID,1004.68,VALID,0,INVALID,163.716,VALID,0,VALID,24.714,VALID,351,VALID,0,
2011-09-13, 00:46:04,VALID,1004.66,VALID,0,INVALID,163.739,VALID,0,VALID,24.6945,VALID,350,VALID,0,
2011-09-13, 00:47:04,VALID,1004.61,VALID,0,INVALID,163.708,VALID,0,VALID,24.6964,VALID,355,VALID,0,
2011-09-13, 00:48:04,VALID,1004.6,VALID,0,INVALID,163.731,VALID,0,VALID,24.6769,VALID,353,VALID,0,
2011-09-13, 00:49:04,VALID,1004.55,VALID,0,INVALID,163.746,VALID,0,VALID,24.6166,VALID,354,VALID,0,
2011-09-13, 00:50:04,VALID,1004.57,VALID,0,INVALID,163.716,VALID,0,VALID,24.6185,VALID,353,VALID,0,
2011-09-13, 00:51:04,VALID,1004.57,VALID,0,INVALID,163.739,VALID,0,VALID,24.599,VALID,346,VALID,0,
2011-09-13, 00:52:04,VALID,1004.58,VALID,0,INVALID,163.754,VALID,0,VALID,24.5388,VALID,349,VALID,0,
2011-09-13, 00:53:04,VALID,1004.56,VALID,0,INVALID,163.716,VALID,0,VALID,24.5601,VALID,348,VALID,0,
2011-09-13, 00:54:04,VALID,1004.51,VALID,0,INVALID,163.708,VALID,0,VALID,24.5212,VALID,345,VALID,0,
2011-09-13, 00:55:04,VALID,1004.52,VALID,0,INVALID,163.739,VALID,0,VALID,24.4804,VALID,347,VALID,0,
2011-09-13, 00:56:04,VALID,1004.53,VALID,0,INVALID,163.708,VALID,0,VALID,24.4804,VALID,343,VALID,0,
2011-09-13, 00:57:04,VALID,1004.5,VALID,0,INVALID,163.723,VALID,0,VALID,24.4804,VALID,355,VALID,0,
2011-09-13, 00:58:04,VALID,1004.47,VALID,0,INVALID,163.739,VALID,0,VALID,24.4609,VALID,346,VALID,0,
2011-09-13, 00:59:04,VALID,1004.52,VALID,0,INVALID,163.708,VALID,0,VALID,24.4609,VALID,351,VALID,0,
2011-09-13, 01:00:04,VALID,1004.5,VALID,0,INVALID,163.746,VALID,0,VALID,24.4998,VALID,338,VALID,0,
2011-09-13, 01:01:04,VALID,1004.5,VALID,0,INVALID,163.754,VALID,0,VALID,24.4998,VALID,350,VALID,0,
2011-09-13, 01:02:04,VALID,1004.5,VALID,0,INVALID,163.739,VALID,0,VALID,24.5017,VALID,313,VALID,0,
2011-09-13, 01:03:04,VALID,1004.52,VALID,0,INVALID,163.723,VALID,0,VALID,24.5406,VALID,353,VALID,0,
2011-09-13, 01:04:04,VALID,1004.54,VALID,0,INVALID,163.769,VALID,0,VALID,24.5388,VALID,345,VALID,0,
2011-09-13, 01:05:04,VALID,1004.53,VALID,0,INVALID,163.716,VALID,0,VALID,24.5388,VALID,352,VALID,0,
2011-09-13, 01:06:04,VALID,1004.51,VALID,0,INVALID,163.701,VALID,0,VALID,24.5601,VALID,345,VALID,0,
2011-09-13, 01:07:04,VALID,1004.48,VALID,0,INVALID,163.731,VALID,0,VALID,24.5601,VALID,348,VALID,0,
2011-09-13, 01:08:04,VALID,1004.46,VALID,0,INVALID,163.723,VALID,0,VALID,24.5174,VALID,340,VALID,0,
2011-09-13, 01:09:04,VALID,1004.45,VALID,0,INVALID,163.746,VALID,0,VALID,24.5582,VALID,345,VALID,0,
2011-09-13, 01:10:04,VALID,1004.41,VALID,0,INVALID,163.723,VALID,0,VALID,24.5582,VALID,344,VALID,0,
2011-09-13, 01:11:04,VALID,1004.36,VALID,0,INVALID,163.723,VALID,0,VALID,24.5796,VALID,347,VALID,0,
2011-09-13, 01:12:04,VALID,1004.33,VALID,0,INVALID,163.708,VALID,0,VALID,24.5777,VALID,345,VALID,0,
2011-09-13, 01:13:04,VALID,1004.26,VALID,0,INVALID,163.731,VALID,0,VALID,24.5972,VALID,342,VALID,0,
2011-09-13, 01:14:04,VALID,1004.28,VALID,0,INVALID,163.701,VALID,0,VALID,24.6185,VALID,335,VALID,0,
2011-09-13, 01:15:04,VALID,1004.2,VALID,0,INVALID,163.708,VALID,0,VALID,24.5953,VALID,349,VALID,0,
2011-09-13, 01:16:04,VALID,1004.17,VALID,0,INVALID,163.716,VALID,0,VALID,24.6361,VALID,356,VALID,0,
2011-09-13, 01:17:04,VALID,1004.15,VALID,0,INVALID,163.723,VALID,0,VALID,24.6574,VALID,357,VALID,0,
2011-09-13, 01:18:04,VALID,1004.1,VALID,0,INVALID,163.708,VALID,0,VALID,24.6556,VALID,349,VALID,0,
2011-09-13, 01:19:04,VALID,1004.06,VALID,0,INVALID,163.723,VALID,0,VALID,24.714,VALID,352,VALID,0,
2011-09-13, 01:20:04,VALID,1004,VALID,0,INVALID,163.693,VALID,0,VALID,24.7529,VALID,356,VALID,0,
2011-09-13, 01:21:04,VALID,1004,VALID,0,INVALID,163.723,VALID,0,VALID,24.7919,VALID,359,VALID,0,
2011-09-13, 01:22:04,VALID,1003.98,VALID,0,INVALID,163.701,VALID,0,VALID,24.7919,VALID,352,VALID,0,
2011-09-13, 01:23:04,VALID,1003.98,VALID,0,INVALID,163.701,VALID,0,VALID,24.7919,VALID,347,VALID,0,
2011-09-13, 01:24:04,VALID,1003.97,VALID,0,INVALID,163.693,VALID,0.100563,VALID,24.7919,VALID,358,VALID,0,
2011-09-13, 01:25:04,VALID,1004.02,VALID,0,INVALID,163.708,VALID,0,VALID,24.7919,VALID,357,VALID,0,
2011-09-13, 01:26:04,VALID,1004,VALID,0,INVALID,163.701,VALID,0,VALID,24.8308,VALID,12,VALID,0,
2011-09-13, 01:27:04,VALID,1004.04,VALID,0,INVALID,163.693,VALID,0,VALID,24.9087,VALID,7,VALID,0,
2011-09-13, 01:28:04,VALID,1004.03,VALID,0,INVALID,163.685,VALID,0,VALID,24.9885,VALID,1,VALID,0,
2011-09-13, 01:29:04,VALID,1004.05,VALID,0,INVALID,163.685,VALID,0,VALID,25.0255,VALID,353,VALID,0,
2011-09-13, 01:30:04,VALID,1004.08,VALID,0,INVALID,163.685,VALID,0,VALID,25.0858,VALID,351,VALID,0,
2011-09-13, 01:31:04,VALID,1004.11,VALID,0,INVALID,163.685,VALID,0,VALID,25.1053,VALID,360,VALID,0,
2011-09-13, 01:32:04,VALID,1004.13,VALID,0,INVALID,163.67,VALID,0,VALID,25.1053,VALID,346,VALID,0,
2011-09-13, 01:33:04,VALID,1004.14,VALID,0,INVALID,163.701,VALID,0,VALID,25.1034,VALID,7,VALID,0,
2011-09-13, 01:34:04,VALID,1004.19,VALID,0,INVALID,163.67,VALID,0,VALID,25.1229,VALID,352,VALID,0,
2011-09-13, 01:35:04,VALID,1004.24,VALID,0,INVALID,163.662,VALID,0,VALID,25.1229,VALID,351,VALID,0,
2011-09-13, 01:36:04,VALID,1004.26,VALID,0,INVALID,163.685,VALID,0,VALID,25.1423,VALID,351,VALID,0,
2011-09-13, 01:37:04,VALID,1004.27,VALID,0,INVALID,163.693,VALID,0,VALID,25.1423,VALID,351,VALID,0,
2011-09-13, 01:38:04,VALID,1004.32,VALID,0,INVALID,163.693,VALID,0,VALID,25.1618,VALID,359,VALID,0,
2011-09-13, 01:39:04,VALID,1004.31,VALID,0,INVALID,163.678,VALID,0,VALID,25.1813,VALID,355,VALID,0,
2011-09-13, 01:40:04,VALID,1004.29,VALID,0,INVALID,163.693,VALID,0,VALID,25.1618,VALID,343,VALID,0,
2011-09-13, 01:41:04,VALID,1004.26,VALID,0,INVALID,163.662,VALID,0,VALID,25.1832,VALID,4,VALID,0,
2011-09-13, 01:42:04,VALID,1004.23,VALID,0,INVALID,163.693,VALID,0,VALID,25.1637,VALID,348,VALID,0,
2011-09-13, 01:43:04,VALID,1004.25,VALID,0,INVALID,163.678,VALID,0,VALID,25.1034,VALID,359,VALID,0,
2011-09-13, 01:44:04,VALID,1004.26,VALID,0,INVALID,163.678,VALID,0,VALID,25.045,VALID,354,VALID,0,
2011-09-13, 01:45:04,VALID,1004.24,VALID,0,INVALID,163.701,VALID,0,VALID,24.9866,VALID,359,VALID,0,
2011-09-13, 01:46:04,VALID,1004.24,VALID,0,INVALID,163.67,VALID,0,VALID,24.9476,VALID,349,VALID,0,
2011-09-13, 01:47:04,VALID,1004.24,VALID,0,INVALID,163.723,VALID,0,VALID,24.9087,VALID,343,VALID,0,
2011-09-13, 01:48:04,VALID,1004.25,VALID,0,INVALID,163.723,VALID,0,VALID,24.8697,VALID,348,VALID,0,
2011-09-13, 01:49:04,VALID,1004.29,VALID,0,INVALID,163.716,VALID,0.100563,VALID,24.8697,VALID,345,VALID,0,
2011-09-13, 01:50:04,VALID,1004.35,VALID,0,INVALID,163.693,VALID,0,VALID,24.8289,VALID,345,VALID,0,
2011-09-13, 01:51:04,VALID,1004.36,VALID,0,INVALID,163.701,VALID,0,VALID,24.8308,VALID,344,VALID,0,
2011-09-13, 01:52:04,VALID,1004.37,VALID,0,INVALID,163.716,VALID,0,VALID,24.8503,VALID,344,VALID,0,
2011-09-13, 01:53:04,VALID,1004.38,VALID,0,INVALID,163.731,VALID,0,VALID,24.8308,VALID,344,VALID,0,
2011-09-13, 01:54:04,VALID,1004.39,VALID,0,INVALID,163.693,VALID,0,VALID,24.8522,VALID,344,VALID,0,
2011-09-13, 01:55:04,VALID,1004.35,VALID,0,INVALID,163.716,VALID,0,VALID,24.8327,VALID,344,VALID,0,
2011-09-13, 01:56:04,VALID,1004.33,VALID,0,INVALID,163.685,VALID,0.100563,VALID,24.7919,VALID,345,VALID,0,
2011-09-13, 01:57:04,VALID,1004.31,VALID,0,INVALID,163.731,VALID,0,VALID,24.714,VALID,352,VALID,0,
2011-09-13, 01:58:04,VALID,1004.28,VALID,0,INVALID,163.739,VALID,0,VALID,24.6342,VALID,353,VALID,0,
2011-09-13, 01:59:04,VALID,1004.31,VALID,0,INVALID,163.708,VALID,0,VALID,24.5777,VALID,352,VALID,0,
2011-09-13, 02:00:04,VALID,1004.27,VALID,0,INVALID,163.731,VALID,0.100563,VALID,24.5174,VALID,348,VALID,0,
2011-09-13, 02:01:04,VALID,1004.29,VALID,0,INVALID,163.716,VALID,0,VALID,24.5193,VALID,349,VALID,0,
2011-09-13, 02:02:04,VALID,1004.29,VALID,0,INVALID,163.723,VALID,0,VALID,24.4998,VALID,349,VALID,0,
2011-09-13, 02:03:04,VALID,1004.29,VALID,0,INVALID,163.723,VALID,0.100563,VALID,24.4998,VALID,343,VALID,0,
2011-09-13, 02:04:04,VALID,1004.25,VALID,0,INVALID,163.716,VALID,0.100563,VALID,24.5193,VALID,348,VALID,0,
2011-09-13, 02:05:04,VALID,1004.24,VALID,0,INVALID,163.739,VALID,0.100563,VALID,24.4785,VALID,348,VALID,0,
2011-09-13, 02:06:04,VALID,1004.19,VALID,0,INVALID,163.716,VALID,0.100563,VALID,24.498,VALID,353,VALID,0,
2011-09-13, 02:07:04,VALID,1004.18,VALID,0,INVALID,163.731,VALID,0.100563,VALID,24.4998,VALID,349,VALID,0,
2011-09-13, 02:08:04,VALID,1004.13,VALID,0,INVALID,163.731,VALID,0.100563,VALID,24.4609,VALID,347,VALID,0,
2011-09-13, 02:09:04,VALID,1004.1,VALID,0,INVALID,163.723,VALID,0,VALID,24.4414,VALID,348,VALID,0,
2011-09-13, 02:10:04,VALID,1004.06,VALID,0,INVALID,163.746,VALID,0,VALID,24.4025,VALID,348,VALID,0,
2011-09-13, 02:11:04,VALID,1004.06,VALID,0,INVALID,163.746,VALID,0.100563,VALID,24.3812,VALID,355,VALID,0,
2011-09-13, 02:12:04,VALID,1004.05,VALID,0,INVALID,163.769,VALID,0.100563,VALID,24.3617,VALID,352,VALID,0,
2011-09-13, 02:13:04,VALID,1004.03,VALID,0,INVALID,163.769,VALID,0,VALID,24.3636,VALID,357,VALID,0,
2011-09-13, 02:14:04,VALID,1004.02,VALID,0,INVALID,163.746,VALID,0,VALID,24.3617,VALID,348,VALID,0,
2011-09-13, 02:15:04,VALID,1004,VALID,0,INVALID,163.754,VALID,0.100563,VALID,24.422,VALID,346,VALID,0,
2011-09-13, 02:16:04,VALID,1003.98,VALID,0,INVALID,163.716,VALID,0,VALID,24.459,VALID,360,VALID,0,
2011-09-13, 02:17:04,VALID,1003.97,VALID,0,INVALID,163.708,VALID,0,VALID,24.5193,VALID,350,VALID,0,
2011-09-13, 02:18:04,VALID,1003.97,VALID,0,INVALID,163.731,VALID,0,VALID,24.5193,VALID,347,VALID,0,
2011-09-13, 02:19:04,VALID,1003.97,VALID,0,INVALID,163.739,VALID,0,VALID,24.5369,VALID,344,VALID,0,
2011-09-13, 02:20:04,VALID,1003.98,VALID,0,INVALID,163.723,VALID,0.100563,VALID,24.5758,VALID,353,VALID,0,
2011-09-13, 02:21:04,VALID,1003.99,VALID,0,INVALID,163.716,VALID,0.100563,VALID,24.5953,VALID,345,VALID,0,
2011-09-13, 02:22:04,VALID,1003.98,VALID,0,INVALID,163.731,VALID,0,VALID,24.6361,VALID,354,VALID,0,
2011-09-13, 02:23:04,VALID,1003.98,VALID,0,INVALID,163.731,VALID,0.100563,VALID,24.6148,VALID,349,VALID,0,
2011-09-13, 02:24:04,VALID,1003.95,VALID,0,INVALID,163.731,VALID,0,VALID,24.6361,VALID,350,VALID,0,
2011-09-13, 02:25:04,VALID,1003.96,VALID,0,INVALID,163.708,VALID,0,VALID,24.6342,VALID,347,VALID,0,
2011-09-13, 02:26:04,VALID,1003.94,VALID,0,INVALID,163.708,VALID,0,VALID,24.6361,VALID,350,VALID,0,
2011-09-13, 02:27:04,VALID,1003.97,VALID,0,INVALID,163.723,VALID,0.100563,VALID,24.6361,VALID,348,VALID,0,
2011-09-13, 02:28:04,VALID,1003.94,VALID,0,INVALID,163.731,VALID,0,VALID,24.675,VALID,3,VALID,0,
2011-09-13, 02:29:04,VALID,1003.98,VALID,0,INVALID,163.708,VALID,0,VALID,24.6926,VALID,355,VALID,0,
2011-09-13, 02:30:04,VALID,1003.98,VALID,0,INVALID,163.708,VALID,0,VALID,24.7121,VALID,349,VALID,0,
2011-09-13, 02:31:04,VALID,1003.98,VALID,0,INVALID,163.723,VALID,0,VALID,24.7919,VALID,3,VALID,0,
2011-09-13, 02:32:04,VALID,1004.02,VALID,0,INVALID,163.754,VALID,0.100563,VALID,24.8113,VALID,351,VALID,0,
2011-09-13, 02:33:04,VALID,1004.02,VALID,0,INVALID,163.716,VALID,0.100563,VALID,24.8503,VALID,350,VALID,0,
2011-09-13, 02:34:04,VALID,1004.01,VALID,0,INVALID,163.708,VALID,0,VALID,24.8697,VALID,350,VALID,0,
2011-09-13, 02:35:04,VALID,1004.05,VALID,0,INVALID,163.701,VALID,0,VALID,24.9087,VALID,354,VALID,0,
2011-09-13, 02:36:04,VALID,1004.06,VALID,0,INVALID,163.731,VALID,0.100563,VALID,24.9263,VALID,357,VALID,0,
2011-09-13, 02:37:04,VALID,1004.09,VALID,0,INVALID,163.693,VALID,0,VALID,24.9671,VALID,354,VALID,0,
2011-09-13, 02:38:04,VALID,1004.09,VALID,0,INVALID,163.701,VALID,0,VALID,24.9847,VALID,358,VALID,0,
2011-09-13, 02:39:04,VALID,1004.11,VALID,0,INVALID,163.701,VALID,0,VALID,24.9847,VALID,352,VALID,0,
2011-09-13, 02:40:04,VALID,1004.13,VALID,0,INVALID,163.716,VALID,0.100563,VALID,25.0079,VALID,358,VALID,0,
2011-09-13, 02:41:04,VALID,1004.14,VALID,0,INVALID,163.723,VALID,0.100563,VALID,24.9847,VALID,17,VALID,0,
2011-09-13, 02:42:04,VALID,1004.14,VALID,0,INVALID,163.701,VALID,0.100563,VALID,25.0255,VALID,359,VALID,0,
2011-09-13, 02:43:04,VALID,1004.15,VALID,0,INVALID,163.701,VALID,0.100563,VALID,25.0255,VALID,4,VALID,0,
2011-09-13, 02:44:04,VALID,1004.13,VALID,0,INVALID,163.716,VALID,0,VALID,25.0255,VALID,23,VALID,0,
2011-09-13, 02:45:04,VALID,1004.16,VALID,0,INVALID,163.701,VALID,0.100563,VALID,25.0041,VALID,6,VALID,0,
2011-09-13, 02:46:04,VALID,1004.15,VALID,0,INVALID,163.693,VALID,0,VALID,24.9866,VALID,6,VALID,0,
2011-09-13, 02:47:04,VALID,1004.15,VALID,0,INVALID,163.678,VALID,0,VALID,24.9866,VALID,356,VALID,0,
2011-09-13, 02:48:04,VALID,1004.12,VALID,0,INVALID,163.693,VALID,0,VALID,24.9671,VALID,356,VALID,0,
2011-09-13, 02:49:04,VALID,1004.18,VALID,0,INVALID,163.716,VALID,0,VALID,24.9476,VALID,9,VALID,0,
2011-09-13, 02:50:04,VALID,1004.2,VALID,0,INVALID,163.678,VALID,0,VALID,24.9652,VALID,7,VALID,0,
2011-09-13, 02:51:04,VALID,1004.24,VALID,0,INVALID,163.701,VALID,0,VALID,25.0274,VALID,9,VALID,0,
2011-09-13, 02:52:04,VALID,1004.3,VALID,0,INVALID,163.693,VALID,0,VALID,24.9847,VALID,9,VALID,0,
2011-09-13, 02:53:04,VALID,1004.33,VALID,0,INVALID,163.685,VALID,0,VALID,24.9457,VALID,7,VALID,0,
2011-09-13, 02:54:04,VALID,1004.35,VALID,0,INVALID,163.67,VALID,0,VALID,25.0644,VALID,351,VALID,0,
2011-09-13, 02:55:04,VALID,1004.36,VALID,0,INVALID,163.685,VALID,0,VALID,25.1637,VALID,2,VALID,0,
2011-09-13, 02:56:04,VALID,1004.32,VALID,0,INVALID,163.693,VALID,0,VALID,25.2007,VALID,345,VALID,0,
2011-09-13, 02:57:04,VALID,1004.34,VALID,0,INVALID,163.678,VALID,0,VALID,25.3176,VALID,5,VALID,0,
2011-09-13, 02:58:04,VALID,1004.35,VALID,0,INVALID,163.662,VALID,0,VALID,25.376,VALID,345,VALID,0,
2011-09-13, 02:59:04,VALID,1004.35,VALID,0,INVALID,163.693,VALID,0,VALID,25.376,VALID,345,VALID,0,
2011-09-13, 03:00:04,VALID,1004.33,VALID,0,INVALID,163.685,VALID,0,VALID,25.3565,VALID,354,VALID,0,
2011-09-13, 03:01:04,VALID,1004.36,VALID,0,INVALID,163.67,VALID,0,VALID,25.3955,VALID,357,VALID,0,
2011-09-13, 03:02:04,VALID,1004.39,VALID,0,INVALID,163.662,VALID,0,VALID,25.3565,VALID,352,VALID,0,
2011-09-13, 03:03:04,VALID,1004.39,VALID,0,INVALID,163.685,VALID,0,VALID,25.3195,VALID,345,VALID,0,
2011-09-13, 03:04:04,VALID,1004.4,VALID,0,INVALID,163.685,VALID,0,VALID,25.2397,VALID,353,VALID,0,
2011-09-13, 03:05:04,VALID,1004.4,VALID,0,INVALID,163.67,VALID,0,VALID,25.1813,VALID,350,VALID,0,
2011-09-13, 03:06:04,VALID,1004.41,VALID,0,INVALID,163.685,VALID,0,VALID,25.0839,VALID,354,VALID,0,
2011-09-13, 03:07:04,VALID,1004.37,VALID,0,INVALID,163.678,VALID,0,VALID,25.0255,VALID,349,VALID,0,
2011-09-13, 03:08:04,VALID,1004.36,VALID,0,INVALID,163.731,VALID,0,VALID,24.969,VALID,355,VALID,0,
2011-09-13, 03:09:04,VALID,1004.35,VALID,0,INVALID,163.693,VALID,0,VALID,24.8697,VALID,349,VALID,0,
2011-09-13, 03:10:04,VALID,1004.36,VALID,0,INVALID,163.693,VALID,0,VALID,24.8522,VALID,349,VALID,0,
2011-09-13, 03:11:04,VALID,1004.34,VALID,0,INVALID,163.739,VALID,0,VALID,24.7937,VALID,354,VALID,0,
2011-09-13, 03:12:04,VALID,1004.36,VALID,0,INVALID,163.731,VALID,0,VALID,24.714,VALID,352,VALID,0,
2011-09-13, 03:13:04,VALID,1004.33,VALID,0,INVALID,163.708,VALID,0,VALID,24.6769,VALID,353,VALID,0,
2011-09-13, 03:14:04,VALID,1004.35,VALID,0,INVALID,163.754,VALID,0,VALID,24.638,VALID,353,VALID,0,
2011-09-13, 03:15:04,VALID,1004.32,VALID,0,INVALID,163.739,VALID,0,VALID,24.5777,VALID,353,VALID,0,
2011-09-13, 03:16:04,VALID,1004.33,VALID,0,INVALID,163.723,VALID,0,VALID,24.5193,VALID,353,VALID,0,
2011-09-13, 03:17:04,VALID,1004.3,VALID,0,INVALID,163.746,VALID,0,VALID,24.4998,VALID,353,VALID,0,
2011-09-13, 03:18:04,VALID,1004.31,VALID,0,INVALID,163.739,VALID,0,VALID,24.4628,VALID,353,VALID,0,
2011-09-13, 03:19:04,VALID,1004.3,VALID,0,INVALID,163.739,VALID,0.100563,VALID,24.422,VALID,353,VALID,0,
2011-09-13, 03:20:04,VALID,1004.31,VALID,0,INVALID,163.746,VALID,0,VALID,24.4025,VALID,352,VALID,0,
2011-09-13, 03:21:04,VALID,1004.35,VALID,0,INVALID,163.784,VALID,0,VALID,24.3617,VALID,352,VALID,0,
2011-09-13, 03:22:04,VALID,1004.33,VALID,0,INVALID,163.762,VALID,0,VALID,24.3636,VALID,352,VALID,0,
2011-09-13, 03:23:04,VALID,1004.32,VALID,0,INVALID,163.762,VALID,0,VALID,24.3636,VALID,352,VALID,0,
2011-09-13, 03:24:04,VALID,1004.31,VALID,0,INVALID,163.792,VALID,0,VALID,24.3459,VALID,352,VALID,0,
2011-09-13, 03:25:04,VALID,1004.29,VALID,0,INVALID,163.746,VALID,0,VALID,24.3265,VALID,352,VALID,0,
2011-09-13, 03:26:04,VALID,1004.3,VALID,0,INVALID,163.746,VALID,0,VALID,24.2857,VALID,352,VALID,0,
2011-09-13, 03:27:04,VALID,1004.32,VALID,0,INVALID,163.754,VALID,0,VALID,24.2662,VALID,352,VALID,0,
2011-09-13, 03:28:04,VALID,1004.32,VALID,0,INVALID,163.762,VALID,0,VALID,24.2857,VALID,352,VALID,0,
2011-09-13, 03:29:04,VALID,1004.31,VALID,0,INVALID,163.762,VALID,0,VALID,24.2662,VALID,352,VALID,0,
2011-09-13, 03:30:04,VALID,1004.31,VALID,0,INVALID,163.746,VALID,0,VALID,24.3052,VALID,352,VALID,0,
2011-09-13, 03:31:04,VALID,1004.28,VALID,0,INVALID,163.762,VALID,0,VALID,24.2857,VALID,352,VALID,0,
2011-09-13, 03:32:04,VALID,1004.27,VALID,0,INVALID,163.731,VALID,0,VALID,24.2857,VALID,352,VALID,0,
2011-09-13, 03:33:04,VALID,1004.27,VALID,0,INVALID,163.746,VALID,0,VALID,24.2662,VALID,352,VALID,0,
2011-09-13, 03:34:04,VALID,1004.24,VALID,0,INVALID,163.777,VALID,0,VALID,24.2468,VALID,352,VALID,0,
2011-09-13, 03:35:04,VALID,1004.24,VALID,0,INVALID,163.739,VALID,0,VALID,24.2273,VALID,352,VALID,0,
2011-09-13, 03:36:04,VALID,1004.25,VALID,0,INVALID,163.769,VALID,0,VALID,24.2078,VALID,352,VALID,0,
2011-09-13, 03:37:04,VALID,1004.28,VALID,0,INVALID,163.762,VALID,0,VALID,24.1884,VALID,352,VALID,0,
2011-09-13, 03:38:04,VALID,1004.3,VALID,0,INVALID,163.769,VALID,0,VALID,24.1689,VALID,352,VALID,0,
2011-09-13, 03:39:04,VALID,1004.32,VALID,0,INVALID,163.731,VALID,0,VALID,24.1494,VALID,352,VALID,0,
2011-09-13, 03:40:04,VALID,1004.33,VALID,0,INVALID,163.754,VALID,0,VALID,24.1494,VALID,352,VALID,0,
2011-09-13, 03:41:04,VALID,1004.3,VALID,0,INVALID,163.731,VALID,0,VALID,24.1707,VALID,352,VALID,0,
2011-09-13, 03:42:04,VALID,1004.29,VALID,0,INVALID,163.777,VALID,0,VALID,24.13,VALID,295,VALID,0,
2011-09-13, 03:43:04,VALID,1004.28,VALID,0,INVALID,163.746,VALID,0,VALID,24.1513,VALID,293,VALID,0,
2011-09-13, 03:44:04,VALID,1004.26,VALID,0,INVALID,163.762,VALID,0,VALID,24.1105,VALID,287,VALID,0,
2011-09-13, 03:45:04,VALID,1004.27,VALID,0,INVALID,163.769,VALID,0,VALID,24.1105,VALID,287,VALID,0,
2011-09-13, 03:46:04,VALID,1004.31,VALID,0,INVALID,163.731,VALID,0,VALID,24.1318,VALID,221,VALID,0,
2011-09-13, 03:47:04,VALID,1004.28,VALID,0,INVALID,163.746,VALID,0,VALID,24.0929,VALID,188,VALID,0,
2011-09-13, 03:48:04,VALID,1004.32,VALID,0,INVALID,163.784,VALID,0,VALID,24.0132,VALID,184,VALID,0,
2011-09-13, 03:49:04,VALID,1004.34,VALID,0,INVALID,163.762,VALID,0,VALID,23.9742,VALID,184,VALID,0,
2011-09-13, 03:50:04,VALID,1004.38,VALID,0,INVALID,163.739,VALID,0,VALID,23.9742,VALID,184,VALID,0,
2011-09-13, 03:51:04,VALID,1004.38,VALID,0,INVALID,163.769,VALID,0,VALID,23.9548,VALID,186,VALID,0,
2011-09-13, 03:52:04,VALID,1004.4,VALID,0,INVALID,163.792,VALID,0.100563,VALID,23.9548,VALID,201,VALID,0,
2011-09-13, 03:53:04,VALID,1004.4,VALID,0,INVALID,163.769,VALID,0,VALID,23.9937,VALID,183,VALID,0,